Location: Brachbach
(49.1847°N, 9.7240°E)
Time: 01:31:55
(UTC+00:00)

ARIANE 6 FM1 Upper Stage - Pass Details

Date: 28 January 2026
Orbit: 522 x 609 km, 62.0° (Epoch: 13 February)

Event Time Altitude Azimuth Distance (km) Brightness Sun altitude
Rises 17:32:56 0° 239° (WSW) 2,701 7.6 -13.4°
Reaches altitude 10° 17:35:12 10° 244° (WSW) 1,799 6.6 -13.7°
Maximum altitude 17:39:08 49° 321° (NW) 691 3.3 -14.4°
Enters shadow 17:42:04 16° 32° (NNE) 1,418 4.3 -14.8°
